Time,TemperatureF,DewpointF,PressureIn,WindDirection,WindDirectionDegrees,WindSpeedMPH,WindSpeedGustMPH,Humidity,HourlyPrecipIn,Conditions,Clouds,dailyrainin,SoftwareType,DateUTC
2013-03-18 00:00:00,35.8,34.8,30.18,ESE,123,4.0,6.0,96,0.07,,---,0.31,VWS V14.01,2013-03-18 04:00:00,
2013-03-18 00:05:00,35.7,34.7,30.18,SSE,155,1.0,4.0,96,0.08,,---,0.01,VWS V14.01,2013-03-18 04:05:00,
2013-03-18 00:10:00,35.7,34.7,30.19,NE,38,1.0,3.0,96,0.08,,---,0.01,VWS V14.01,2013-03-18 04:10:00,
2013-03-18 00:15:00,35.7,34.7,30.19,NE,34,0.0,4.0,96,0.07,,---,0.01,VWS V14.01,2013-03-18 04:15:00,
2013-03-18 00:20:00,35.7,34.7,30.18,NE,34,2.0,2.0,96,0.07,,---,0.01,VWS V14.01,2013-03-18 04:20:00,
2013-03-18 00:25:00,35.7,34.7,30.18,NNW,344,3.0,4.0,96,0.08,,---,0.02,VWS V14.01,2013-03-18 04:25:00,
2013-03-18 00:30:00,35.7,34.7,30.18,NE,46,1.0,4.0,96,0.05,,---,0.02,VWS V14.01,2013-03-18 04:30:00,
2013-03-18 00:35:00,35.6,34.6,30.18,SSE,148,0.0,5.0,96,0.05,,---,0.02,VWS V14.01,2013-03-18 04:35:00,
2013-03-18 00:40:00,35.6,34.6,30.18,ENE,60,2.0,4.0,96,0.05,,---,0.02,VWS V14.01,2013-03-18 04:40:00,
2013-03-18 00:45:00,35.6,34.6,30.18,South,187,1.0,4.0,96,0.04,,---,0.02,VWS V14.01,2013-03-18 04:45:00,
2013-03-18 00:50:00,35.6,34.6,30.18,ENE,61,1.0,3.0,96,0.04,,---,0.02,VWS V14.01,2013-03-18 04:50:00,
2013-03-18 00:55:00,35.6,34.8,30.18,ENE,61,0.0,2.0,97,0.05,,---,0.03,VWS V14.01,2013-03-18 04:55:00,
2013-03-18 01:00:00,35.6,34.8,30.18,ESE,108,1.0,4.0,97,0.03,,---,0.03,VWS V14.01,2013-03-18 05:00:00,
2013-03-18 01:05:00,35.6,34.6,30.18,ENE,69,0.0,3.0,96,0.03,,---,0.03,VWS V14.01,2013-03-18 05:05:00,
2013-03-18 01:10:00,35.6,34.8,30.18,ENE,69,2.0,2.0,97,0.03,,---,0.03,VWS V14.01,2013-03-18 05:10:00,
2013-03-18 01:15:00,35.6,34.8,30.18,East,86,0.0,3.0,97,0.03,,---,0.04,VWS V14.01,2013-03-18 05:15:00,
2013-03-18 01:20:00,35.6,34.8,30.18,SE,126,2.0,3.0,97,0.03,,---,0.04,VWS V14.01,2013-03-18 05:20:00,
2013-03-18 01:25:00,35.6,34.8,30.18,East,94,1.0,3.0,97,0.03,,---,0.04,VWS V14.01,2013-03-18 05:25:00,
2013-03-18 01:30:00,35.6,34.8,30.18,ESE,120,3.0,3.0,97,0.03,,---,0.04,VWS V14.01,2013-03-18 05:30:00,
2013-03-18 01:35:00,35.5,34.5,30.17,ENE,69,0.0,5.0,96,0.03,,---,0.05,VWS V14.01,2013-03-18 05:35:00,
2013-03-18 01:40:00,35.5,34.7,30.18,ESE,115,2.0,2.0,97,0.03,,---,0.05,VWS V14.01,2013-03-18 05:40:00,
2013-03-18 01:45:00,35.5,34.7,30.18,SSE,149,0.0,3.0,97,0.03,,---,0.05,VWS V14.01,2013-03-18 05:45:00,
2013-03-18 01:50:00,35.5,34.7,30.18,SSE,149,0.0,2.0,97,0.03,,---,0.05,VWS V14.01,2013-03-18 05:50:00,
2013-03-18 01:55:00,35.5,34.7,30.17,ESE,111,2.0,3.0,97,0.03,,---,0.05,VWS V14.01,2013-03-18 05:55:00,
2013-03-18 02:00:00,35.4,34.4,30.18,ENE,57,2.0,7.0,96,0.02,,---,0.05,VWS V14.01,2013-03-18 06:00:00,
2013-03-18 02:05:00,35.2,34.2,30.18,ENE,76,2.0,3.0,96,0.02,,---,0.05,VWS V14.01,2013-03-18 06:05:00,
2013-03-18 02:10:00,35.1,34.1,30.18,ENE,73,4.0,7.0,96,0.02,,---,0.05,VWS V14.01,2013-03-18 06:10:00,
2013-03-18 02:15:00,35.0,34.0,30.18,ESE,118,0.0,7.0,96,0.01,,---,0.05,VWS V14.01,2013-03-18 06:15:00,
2013-03-18 02:20:00,34.8,33.8,30.18,ESE,118,0.0,2.0,96,0.01,,---,0.05,VWS V14.01,2013-03-18 06:20:00,
2013-03-18 02:25:00,34.8,33.8,30.18,ESE,118,1.0,1.0,96,0.01,,---,0.05,VWS V14.01,2013-03-18 06:25:00,
2013-03-18 02:30:00,34.8,33.8,30.18,ESE,119,3.0,3.0,96,0.01,,---,0.05,VWS V14.01,2013-03-18 06:30:00,
2013-03-18 02:35:00,34.7,33.7,30.18,ENE,78,2.0,6.0,96,0.01,,---,0.05,VWS V14.01,2013-03-18 06:35:00,
2013-03-18 02:40:00,34.5,33.5,30.18,NE,50,1.0,5.0,96,0.01,,---,0.05,VWS V14.01,2013-03-18 06:40:00,
2013-03-18 02:45:00,34.4,33.4,30.18,NE,51,0.0,2.0,96,0.01,,---,0.05,VWS V14.01,2013-03-18 06:45:00,
2013-03-18 02:49:00,34.4,33.4,30.18,NE,51,0.0,2.0,96,0.00,,---,0.05,VWS V14.01,2013-03-18 06:49:00,
2013-03-18 02:54:00,34.3,33.3,30.18,NE,42,1.0,3.0,96,0.00,,---,0.05,VWS V14.01,2013-03-18 06:54:00,
2013-03-18 02:59:00,34.2,33.2,30.18,NE,42,2.0,2.0,96,0.00,,---,0.05,VWS V14.01,2013-03-18 06:59:00,
2013-03-18 03:04:00,34.2,33.4,30.18,NE,42,2.0,3.0,97,0.01,,---,0.06,VWS V14.01,2013-03-18 07:04:00,
2013-03-18 03:09:00,34.1,33.1,30.18,North,5,0.0,5.0,96,0.01,,---,0.06,VWS V14.01,2013-03-18 07:09:00,
2013-03-18 03:14:00,33.9,32.9,30.18,ESE,109,3.0,4.0,96,0.01,,---,0.06,VWS V14.01,2013-03-18 07:14:00,
2013-03-18 03:19:00,33.8,32.8,30.18,NNE,28,1.0,4.0,96,0.01,,---,0.06,VWS V14.01,2013-03-18 07:19:00,
2013-03-18 03:24:00,33.7,32.7,30.17,ENE,67,3.0,5.0,96,0.01,,---,0.06,VWS V14.01,2013-03-18 07:24:00,
2013-03-18 03:29:00,33.6,32.6,30.17,East,82,2.0,7.0,96,0.02,,---,0.07,VWS V14.01,2013-03-18 07:29:00,
2013-03-18 03:34:00,33.5,32.5,30.18,ENE,71,1.0,3.0,96,0.02,,---,0.07,VWS V14.01,2013-03-18 07:34:00,
2013-03-18 03:39:00,33.5,32.5,30.17,ENE,70,1.0,3.0,96,0.02,,---,0.07,VWS V14.01,2013-03-18 07:39:00,
2013-03-18 03:44:00,33.5,32.5,30.18,NE,51,0.0,5.0,96,0.02,,---,0.07,VWS V14.01,2013-03-18 07:44:00,
2013-03-18 03:49:00,33.5,32.5,30.18,ENE,61,1.0,2.0,96,0.02,,---,0.07,VWS V14.01,2013-03-18 07:49:00,
2013-03-18 03:54:00,33.5,32.7,30.18,ENE,61,1.0,2.0,97,0.02,,---,0.07,VWS V14.01,2013-03-18 07:54:00,
2013-03-18 03:59:00,33.4,32.4,30.17,NE,40,1.0,4.0,96,0.02,,---,0.07,VWS V14.01,2013-03-18 07:59:00,
2013-03-18 04:04:00,33.4,32.4,30.17,NE,40,1.0,3.0,96,0.02,,---,0.07,VWS V14.01,2013-03-18 08:04:00,
2013-03-18 04:09:00,33.3,32.3,30.17,ENE,58,0.0,5.0,96,0.02,,---,0.07,VWS V14.01,2013-03-18 08:09:00,
2013-03-18 04:14:00,33.3,32.3,30.17,ENE,63,3.0,5.0,96,0.02,,---,0.07,VWS V14.01,2013-03-18 08:14:00,
2013-03-18 04:19:00,33.2,32.2,30.17,ENE,73,2.0,4.0,96,0.01,,---,0.07,VWS V14.01,2013-03-18 08:19:00,
2013-03-18 04:24:00,33.3,32.5,30.17,ENE,73,0.0,2.0,97,0.01,,---,0.07,VWS V14.01,2013-03-18 08:24:00,
2013-03-18 04:29:00,33.4,32.6,30.17,ENE,73,2.0,2.0,97,0.01,,---,0.07,VWS V14.01,2013-03-18 08:29:00,
2013-03-18 04:34:00,33.4,32.6,30.17,ENE,78,1.0,3.0,97,0.00,,---,0.07,VWS V14.01,2013-03-18 08:34:00,
2013-03-18 04:39:00,33.3,32.5,30.17,ENE,70,0.0,3.0,97,0.00,,---,0.07,VWS V14.01,2013-03-18 08:39:00,
2013-03-18 04:44:00,33.3,32.5,30.17,ENE,70,2.0,3.0,97,0.00,,---,0.07,VWS V14.01,2013-03-18 08:44:00,
2013-03-18 04:49:00,33.3,32.5,30.18,ENE,70,3.0,3.0,97,0.00,,---,0.07,VWS V14.01,2013-03-18 08:49:00,
2013-03-18 04:54:00,33.3,32.5,30.18,NW,306,2.0,3.0,97,0.00,,---,0.07,VWS V14.01,2013-03-18 08:54:00,
2013-03-18 04:59:00,33.3,32.5,30.17,NNE,32,1.0,4.0,97,0.00,,---,0.07,VWS V14.01,2013-03-18 08:59:00,
2013-03-18 05:04:00,33.3,32.5,30.17,NNE,32,4.0,4.0,97,0.00,,---,0.07,VWS V14.01,2013-03-18 09:04:00,
2013-03-18 05:09:00,33.3,32.5,30.17,NNE,33,2.0,4.0,97,0.00,,---,0.07,VWS V14.01,2013-03-18 09:09:00,
2013-03-18 05:14:00,33.3,32.5,30.17,NNE,30,3.0,4.0,97,0.00,,---,0.07,VWS V14.01,2013-03-18 09:14:00,
2013-03-18 05:19:00,33.2,32.4,30.18,NNE,30,0.0,4.0,97,0.00,,---,0.07,VWS V14.01,2013-03-18 09:19:00,
2013-03-18 05:24:00,33.2,32.4,30.17,NE,42,1.0,2.0,97,0.00,,---,0.07,VWS V14.01,2013-03-18 09:24:00,
2013-03-18 05:29:00,33.1,32.3,30.17,ESE,102,1.0,5.0,97,0.00,,---,0.07,VWS V14.01,2013-03-18 09:29:00,
2013-03-18 05:34:00,33.1,32.3,30.17,NE,55,4.0,5.0,97,0.00,,---,0.07,VWS V14.01,2013-03-18 09:34:00,
2013-03-18 05:39:00,33.0,32.2,30.17,ENE,62,1.0,4.0,97,0.00,,---,0.07,VWS V14.01,2013-03-18 09:39:00,
2013-03-18 05:44:00,33.0,32.2,30.18,ENE,72,2.0,3.0,97,0.00,,---,0.07,VWS V14.01,2013-03-18 09:44:00,
2013-03-18 05:49:00,33.0,32.2,30.18,ENE,62,0.0,3.0,97,0.00,,---,0.07,VWS V14.01,2013-03-18 09:49:00,
2013-03-18 05:54:00,33.0,32.2,30.18,ENE,62,2.0,4.0,97,0.00,,---,0.07,VWS V14.01,2013-03-18 09:54:00,
2013-03-18 05:59:00,32.9,32.1,30.18,ENE,69,2.0,8.0,97,0.00,,---,0.07,VWS V14.01,2013-03-18 09:59:00,
2013-03-18 06:04:00,32.9,31.9,30.18,North,360,0.0,5.0,96,0.00,,---,0.07,VWS V14.01,2013-03-18 10:04:00,
2013-03-18 06:09:00,32.9,31.9,30.18,ENE,69,2.0,6.0,96,0.00,,---,0.07,VWS V14.01,2013-03-18 10:09:00,
2013-03-18 06:14:00,32.9,32.1,30.19,ENE,69,0.0,2.0,97,0.00,,---,0.07,VWS V14.01,2013-03-18 10:14:00,
2013-03-18 06:19:00,32.9,32.1,30.19,ENE,59,3.0,4.0,97,0.00,,---,0.07,VWS V14.01,2013-03-18 10:19:00,
2013-03-18 06:24:00,32.8,31.8,30.19,NE,34,2.0,6.0,96,0.00,,---,0.07,VWS V14.01,2013-03-18 10:24:00,
2013-03-18 06:29:00,32.8,31.8,30.18,NNE,13,4.0,8.0,96,0.00,,---,0.07,VWS V14.01,2013-03-18 10:29:00,
2013-03-18 06:34:00,32.7,31.7,30.19,East,101,5.0,7.0,96,0.00,,---,0.07,VWS V14.01,2013-03-18 10:34:00,
2013-03-18 06:39:00,32.6,31.6,30.19,East,92,2.0,7.0,96,0.00,,---,0.07,VWS V14.01,2013-03-18 10:39:00,
2013-03-18 06:44:00,32.6,31.6,30.19,ENE,67,2.0,5.0,96,0.01,,---,0.08,VWS V14.01,2013-03-18 10:44:00,
2013-03-18 06:49:00,32.5,31.5,30.20,East,96,0.0,5.0,96,0.01,,---,0.08,VWS V14.01,2013-03-18 10:49:00,
2013-03-18 06:54:00,32.5,31.5,30.19,East,82,5.0,7.0,96,0.01,,---,0.08,VWS V14.01,2013-03-18 10:54:00,
2013-03-18 06:59:00,32.5,31.5,30.19,East,96,0.0,5.0,96,0.01,,---,0.08,VWS V14.01,2013-03-18 10:59:00,
2013-03-18 07:04:00,32.5,31.7,30.20,NE,46,3.0,4.0,97,0.01,,---,0.08,VWS V14.01,2013-03-18 11:04:00,
2013-03-18 07:09:00,32.5,31.5,30.20,NE,36,3.0,5.0,96,0.01,,---,0.08,VWS V14.01,2013-03-18 11:09:00,
2013-03-18 07:14:00,32.4,31.4,30.20,East,96,3.0,6.0,96,0.01,,---,0.08,VWS V14.01,2013-03-18 11:14:00,
2013-03-18 07:19:00,32.4,31.4,30.20,NE,34,4.0,9.0,96,0.01,,---,0.08,VWS V14.01,2013-03-18 11:19:00,
2013-03-18 07:24:00,32.3,31.3,30.21,NE,56,1.0,5.0,96,0.01,,---,0.08,VWS V14.01,2013-03-18 11:24:00,
2013-03-18 07:29:00,32.3,31.3,30.21,East,88,5.0,7.0,96,0.01,,---,0.08,VWS V14.01,2013-03-18 11:29:00,
2013-03-18 07:34:00,32.3,31.3,30.20,ENE,72,4.0,7.0,96,0.01,,---,0.08,VWS V14.01,2013-03-18 11:34:00,
2013-03-18 07:39:00,32.3,31.3,30.20,East,88,5.0,9.0,96,0.01,,---,0.08,VWS V14.01,2013-03-18 11:39:00,
2013-03-18 07:44:00,32.3,31.3,30.19,ENE,65,5.0,5.0,96,0.01,,---,0.08,VWS V14.01,2013-03-18 11:44:00,
2013-03-18 07:49:00,32.2,31.2,30.19,NE,49,1.0,7.0,96,0.00,,---,0.08,VWS V14.01,2013-03-18 11:49:00,
2013-03-18 07:54:00,32.2,31.2,30.20,NE,51,3.0,3.0,96,0.00,,---,0.08,VWS V14.01,2013-03-18 11:54:00,
2013-03-18 07:59:00,32.2,31.2,30.20,ENE,58,4.0,4.0,96,0.00,,---,0.08,VWS V14.01,2013-03-18 11:59:00,
2013-03-18 08:04:00,32.3,31.3,30.20,East,87,1.0,6.0,96,0.00,,---,0.08,VWS V14.01,2013-03-18 12:04:00,
2013-03-18 08:09:00,32.2,31.2,30.20,ESE,119,5.0,6.0,96,0.00,,---,0.08,VWS V14.01,2013-03-18 12:09:00,
2013-03-18 08:14:00,32.2,31.2,30.20,NE,53,4.0,5.0,96,0.00,,---,0.08,VWS V14.01,2013-03-18 12:14:00,
2013-03-18 08:19:00,32.2,31.2,30.19,NE,44,6.0,6.0,96,0.00,,---,0.08,VWS V14.01,2013-03-18 12:19:00,
2013-03-18 08:24:00,32.1,31.1,30.19,ESE,102,3.0,7.0,96,0.00,,---,0.08,VWS V14.01,2013-03-18 12:24:00,
2013-03-18 08:29:00,32.1,31.1,30.19,ENE,60,1.0,5.0,96,0.00,,---,0.08,VWS V14.01,2013-03-18 12:29:00,
2013-03-18 08:34:00,32.1,31.1,30.18,East,88,0.0,8.0,96,0.00,,---,0.08,VWS V14.01,2013-03-18 12:34:00,
2013-03-18 08:39:00,32.1,31.1,30.18,ENE,66,4.0,8.0,96,0.00,,---,0.08,VWS V14.01,2013-03-18 12:39:00,
2013-03-18 08:44:00,32.1,31.1,30.18,NE,50,1.0,7.0,96,0.00,,---,0.08,VWS V14.01,2013-03-18 12:44:00,
2013-03-18 08:49:00,32.1,31.1,30.18,East,87,5.0,6.0,96,0.00,,---,0.08,VWS V14.01,2013-03-18 12:49:00,
2013-03-18 08:54:00,32.1,31.1,30.19,ENE,76,2.0,8.0,96,0.00,,---,0.08,VWS V14.01,2013-03-18 12:54:00,
2013-03-18 08:59:00,32.1,31.1,30.18,East,82,3.0,8.0,96,0.00,,---,0.08,VWS V14.01,2013-03-18 12:59:00,
2013-03-18 09:04:00,32.1,31.1,30.19,ENE,74,4.0,9.0,96,0.00,,---,0.08,VWS V14.01,2013-03-18 13:04:00,
2013-03-18 09:09:00,32.1,31.1,30.19,East,98,3.0,6.0,96,0.00,,---,0.08,VWS V14.01,2013-03-18 13:09:00,
2013-03-18 09:14:00,32.1,31.1,30.20,East,97,6.0,7.0,96,0.00,,---,0.08,VWS V14.01,2013-03-18 13:14:00,
2013-03-18 09:19:00,32.2,31.2,30.19,East,94,3.0,8.0,96,0.00,,---,0.08,VWS V14.01,2013-03-18 13:19:00,
2013-03-18 09:24:00,32.3,31.3,30.19,East,94,2.0,9.0,96,0.00,,---,0.08,VWS V14.01,2013-03-18 13:24:00,
2013-03-18 09:29:00,32.3,31.3,30.18,East,99,3.0,7.0,96,0.00,,---,0.08,VWS V14.01,2013-03-18 13:29:00,
2013-03-18 09:34:00,32.3,31.3,30.19,East,90,7.0,7.0,96,0.00,,---,0.08,VWS V14.01,2013-03-18 13:34:00,
2013-03-18 09:39:00,32.3,31.3,30.18,East,97,3.0,8.0,96,0.00,,---,0.08,VWS V14.01,2013-03-18 13:39:00,
2013-03-18 09:44:00,32.3,31.3,30.18,NNE,30,1.0,5.0,96,0.00,,---,0.08,VWS V14.01,2013-03-18 13:44:00,
2013-03-18 09:49:00,32.3,31.3,30.18,ESE,122,2.0,5.0,96,0.00,,---,0.08,VWS V14.01,2013-03-18 13:49:00,
2013-03-18 09:54:00,32.3,31.3,30.18,East,79,1.0,7.0,96,0.01,,---,0.09,VWS V14.01,2013-03-18 13:54:00,
2013-03-18 09:59:00,32.4,31.4,30.18,East,96,3.0,5.0,96,0.01,,---,0.09,VWS V14.01,2013-03-18 13:59:00,
2013-03-18 10:04:00,32.4,31.4,30.18,ENE,72,4.0,6.0,96,0.01,,---,0.09,VWS V14.01,2013-03-18 14:04:00,
2013-03-18 10:09:00,32.5,31.5,30.18,East,90,3.0,6.0,96,0.01,,---,0.09,VWS V14.01,2013-03-18 14:09:00,
2013-03-18 10:14:00,32.5,31.5,30.17,ENE,67,2.0,8.0,96,0.01,,---,0.09,VWS V14.01,2013-03-18 14:14:00,
2013-03-18 10:19:00,32.5,31.5,30.16,ENE,65,2.0,8.0,96,0.01,,---,0.09,VWS V14.01,2013-03-18 14:19:00,
2013-03-18 10:24:00,32.4,31.4,30.16,ENE,68,3.0,9.0,96,0.01,,---,0.09,VWS V14.01,2013-03-18 14:24:00,
2013-03-18 10:29:00,32.4,31.4,30.16,ESE,119,3.0,6.0,96,0.01,,---,0.09,VWS V14.01,2013-03-18 14:29:00,
2013-03-18 10:34:00,32.4,31.4,30.16,ENE,67,4.0,7.0,96,0.01,,---,0.09,VWS V14.01,2013-03-18 14:34:00,
2013-03-18 10:39:00,32.5,31.5,30.17,East,97,3.0,8.0,96,0.01,,---,0.09,VWS V14.01,2013-03-18 14:39:00,
2013-03-18 10:44:00,32.5,31.5,30.17,NE,41,2.0,7.0,96,0.01,,---,0.09,VWS V14.01,2013-03-18 14:44:00,
2013-03-18 10:49:00,32.5,31.5,30.16,ENE,65,2.0,5.0,96,0.01,,---,0.09,VWS V14.01,2013-03-18 14:49:00,
2013-03-18 10:54:00,32.5,31.5,30.16,ENE,58,3.0,5.0,96,0.01,,---,0.09,VWS V14.01,2013-03-18 14:54:00,
2013-03-18 10:58:00,32.6,31.6,30.15,NE,55,1.0,5.0,96,0.01,,---,0.09,VWS V14.01,2013-03-18 14:58:00,
2013-03-18 11:03:00,32.6,31.6,30.16,ESE,108,1.0,7.0,96,0.00,,---,0.09,VWS V14.01,2013-03-18 15:03:00,
2013-03-18 11:08:00,32.6,31.6,30.16,ENE,73,3.0,5.0,96,0.00,,---,0.09,VWS V14.01,2013-03-18 15:08:00,
2013-03-18 11:13:00,32.7,31.9,30.16,East,86,1.0,4.0,97,0.00,,---,0.09,VWS V14.01,2013-03-18 15:13:00,
2013-03-18 11:18:00,32.8,32.0,30.16,ESE,121,2.0,6.0,97,0.00,,---,0.09,VWS V14.01,2013-03-18 15:18:00,
2013-03-18 11:23:00,32.8,31.8,30.16,NE,40,1.0,3.0,96,0.00,,---,0.09,VWS V14.01,2013-03-18 15:23:00,
2013-03-18 11:28:00,32.8,31.8,30.17,East,84,3.0,6.0,96,0.00,,---,0.09,VWS V14.01,2013-03-18 15:28:00,
2013-03-18 11:33:00,32.9,31.9,30.16,NNE,32,4.0,4.0,96,0.00,,---,0.09,VWS V14.01,2013-03-18 15:33:00,
2013-03-18 11:38:00,33.0,32.2,30.16,ENE,63,1.0,4.0,97,0.00,,---,0.09,VWS V14.01,2013-03-18 15:38:00,
2013-03-18 11:43:00,33.0,32.2,30.16,East,87,0.0,4.0,97,0.00,,---,0.09,VWS V14.01,2013-03-18 15:43:00,
2013-03-18 11:48:00,33.1,32.1,30.16,East,87,0.0,3.0,96,0.00,,---,0.09,VWS V14.01,2013-03-18 15:48:00,
2013-03-18 11:53:00,33.2,32.4,30.16,East,87,1.0,2.0,97,0.00,,---,0.09,VWS V14.01,2013-03-18 15:53:00,
2013-03-18 11:58:00,33.2,32.2,30.16,East,82,0.0,4.0,96,0.00,,---,0.09,VWS V14.01,2013-03-18 15:58:00,
2013-03-18 12:03:00,33.3,32.3,30.15,East,94,1.0,5.0,96,0.00,,---,0.09,VWS V14.01,2013-03-18 16:03:00,
2013-03-18 12:08:00,33.3,32.3,30.14,ENE,63,3.0,4.0,96,0.00,,---,0.09,VWS V14.01,2013-03-18 16:08:00,
2013-03-18 12:13:00,33.4,32.4,30.13,East,99,5.0,7.0,96,0.00,,---,0.09,VWS V14.01,2013-03-18 16:13:00,
2013-03-18 12:18:00,33.5,32.7,30.13,East,101,3.0,5.0,97,0.00,,---,0.09,VWS V14.01,2013-03-18 16:18:00,
2013-03-18 12:23:00,33.4,32.4,30.13,ENE,62,3.0,5.0,96,0.00,,---,0.09,VWS V14.01,2013-03-18 16:23:00,
2013-03-18 12:28:00,33.4,32.4,30.12,NE,42,1.0,5.0,96,0.00,,---,0.09,VWS V14.01,2013-03-18 16:28:00,
2013-03-18 12:33:00,33.5,32.5,30.12,ENE,75,1.0,5.0,96,0.00,,---,0.09,VWS V14.01,2013-03-18 16:33:00,
2013-03-18 12:38:00,33.4,32.4,30.12,East,98,1.0,5.0,96,0.00,,---,0.09,VWS V14.01,2013-03-18 16:38:00,
2013-03-18 12:43:00,33.6,32.6,30.11,SE,134,0.0,5.0,96,0.00,,---,0.09,VWS V14.01,2013-03-18 16:43:00,
2013-03-18 12:48:00,33.7,32.7,30.11,East,80,5.0,7.0,96,0.00,,---,0.09,VWS V14.01,2013-03-18 16:48:00,
2013-03-18 12:53:00,33.6,32.6,30.11,SE,146,2.0,6.0,96,0.00,,---,0.09,VWS V14.01,2013-03-18 16:53:00,
2013-03-18 12:58:00,33.8,32.8,30.11,East,82,2.0,5.0,96,0.00,,---,0.09,VWS V14.01,2013-03-18 16:58:00,
2013-03-18 13:03:00,33.7,32.7,30.11,South,179,2.0,5.0,96,0.00,,---,0.09,VWS V14.01,2013-03-18 17:03:00,
2013-03-18 13:08:00,33.8,32.8,30.10,South,179,0.0,2.0,96,0.00,,---,0.09,VWS V14.01,2013-03-18 17:08:00,
2013-03-18 13:13:00,33.9,32.9,30.09,ESE,109,2.0,5.0,96,0.00,,---,0.09,VWS V14.01,2013-03-18 17:13:00,
2013-03-18 13:18:00,34.1,33.1,30.10,East,86,2.0,8.0,96,0.00,,---,0.09,VWS V14.01,2013-03-18 17:18:00,
2013-03-18 13:23:00,33.9,32.9,30.09,ESE,118,2.0,4.0,96,0.00,,---,0.09,VWS V14.01,2013-03-18 17:23:00,
2013-03-18 13:28:00,33.9,32.9,30.09,ESE,123,3.0,4.0,96,0.00,,---,0.09,VWS V14.01,2013-03-18 17:28:00,
2013-03-18 13:33:00,33.9,32.9,30.09,ENE,72,3.0,6.0,96,0.00,,---,0.09,VWS V14.01,2013-03-18 17:33:00,
2013-03-18 13:38:00,34.1,33.1,30.09,ENE,74,0.0,3.0,96,0.00,,---,0.09,VWS V14.01,2013-03-18 17:38:00,
2013-03-18 13:43:00,34.2,33.2,30.09,ENE,71,2.0,4.0,96,0.00,,---,0.09,VWS V14.01,2013-03-18 17:43:00,
2013-03-18 13:48:00,34.0,33.0,30.09,ENE,69,1.0,4.0,96,0.00,,---,0.09,VWS V14.01,2013-03-18 17:48:00,
2013-03-18 13:53:00,34.0,33.0,30.09,ENE,69,0.0,3.0,96,0.00,,---,0.09,VWS V14.01,2013-03-18 17:53:00,
2013-03-18 13:58:00,33.9,32.9,30.09,ENE,58,0.0,3.0,96,0.00,,---,0.09,VWS V14.01,2013-03-18 17:58:00,
2013-03-18 14:03:00,34.0,33.0,30.09,ENE,58,2.0,3.0,96,0.00,,---,0.09,VWS V14.01,2013-03-18 18:03:00,
2013-03-18 14:08:00,33.9,32.9,30.08,ENE,58,0.0,3.0,96,0.00,,---,0.09,VWS V14.01,2013-03-18 18:08:00,
2013-03-18 14:13:00,34.1,33.1,30.08,ENE,58,2.0,3.0,96,0.00,,---,0.09,VWS V14.01,2013-03-18 18:13:00,
2013-03-18 14:18:00,34.1,33.1,30.07,ENE,58,2.0,2.0,96,0.00,,---,0.09,VWS V14.01,2013-03-18 18:18:00,
2013-03-18 14:23:00,34.1,33.1,30.07,ENE,58,1.0,2.0,96,0.00,,---,0.09,VWS V14.01,2013-03-18 18:23:00,
2013-03-18 14:28:00,34.3,33.5,30.06,East,80,3.0,5.0,97,0.00,,---,0.09,VWS V14.01,2013-03-18 18:28:00,
2013-03-18 14:33:00,34.3,33.5,30.06,South,172,2.0,5.0,97,0.00,,---,0.09,VWS V14.01,2013-03-18 18:33:00,
2013-03-18 14:38:00,34.3,33.3,30.06,ESE,119,1.0,3.0,96,0.00,,---,0.09,VWS V14.01,2013-03-18 18:38:00,
2013-03-18 14:43:00,34.3,33.3,30.05,ENE,66,1.0,4.0,96,0.00,,---,0.09,VWS V14.01,2013-03-18 18:43:00,
2013-03-18 14:48:00,34.3,33.3,30.05,ESE,110,1.0,3.0,96,0.00,,---,0.09,VWS V14.01,2013-03-18 18:48:00,
2013-03-18 14:53:00,34.4,33.6,30.04,ENE,74,2.0,5.0,97,0.00,,---,0.09,VWS V14.01,2013-03-18 18:53:00,
2013-03-18 14:58:00,34.4,33.4,30.04,East,80,0.0,5.0,96,0.00,,---,0.09,VWS V14.01,2013-03-18 18:58:00,
2013-03-18 15:03:00,34.5,33.5,30.04,East,80,2.0,5.0,96,0.00,,---,0.09,VWS V14.01,2013-03-18 19:03:00,
2013-03-18 15:08:00,34.5,33.5,30.04,ESE,114,1.0,5.0,96,0.00,,---,0.09,VWS V14.01,2013-03-18 19:08:00,
2013-03-18 15:13:00,34.4,33.1,30.04,NE,51,0.0,3.0,95,0.00,,---,0.09,VWS V14.01,2013-03-18 19:13:00,
2013-03-18 15:18:00,34.3,33.0,30.03,NE,51,0.0,2.0,95,0.00,,---,0.09,VWS V14.01,2013-03-18 19:18:00,
2013-03-18 15:23:00,34.3,33.3,30.04,NE,51,1.0,3.0,96,0.00,,---,0.09,VWS V14.01,2013-03-18 19:23:00,
2013-03-18 15:28:00,34.3,33.3,30.03,NE,47,0.0,2.0,96,0.00,,---,0.09,VWS V14.01,2013-03-18 19:28:00,
2013-03-18 15:33:00,34.4,33.4,30.03,NE,47,0.0,2.0,96,0.00,,---,0.09,VWS V14.01,2013-03-18 19:33:00,
2013-03-18 15:38:00,34.4,33.4,30.03,NE,47,2.0,2.0,96,0.01,,---,0.10,VWS V14.01,2013-03-18 19:38:00,
2013-03-18 15:43:00,34.3,33.3,30.02,NE,47,1.0,4.0,96,0.01,,---,0.10,VWS V14.01,2013-03-18 19:43:00,
2013-03-18 15:48:00,34.2,33.2,30.03,NE,40,0.0,3.0,96,0.01,,---,0.10,VWS V14.01,2013-03-18 19:48:00,
2013-03-18 15:53:00,34.2,33.4,30.02,NE,40,0.0,2.0,97,0.01,,---,0.10,VWS V14.01,2013-03-18 19:53:00,
2013-03-18 15:58:00,34.2,33.4,30.03,NE,40,3.0,3.0,97,0.01,,---,0.10,VWS V14.01,2013-03-18 19:58:00,
2013-03-18 16:03:00,34.0,33.0,30.04,NE,40,2.0,3.0,96,0.01,,---,0.10,VWS V14.01,2013-03-18 20:03:00,
2013-03-18 16:08:00,33.9,32.9,30.03,NE,40,2.0,3.0,96,0.01,,---,0.10,VWS V14.01,2013-03-18 20:08:00,
2013-03-18 16:13:00,33.9,32.9,30.03,NE,40,1.0,2.0,96,0.01,,---,0.10,VWS V14.01,2013-03-18 20:13:00,
2013-03-18 16:18:00,33.9,32.9,30.03,NE,40,0.0,1.0,96,0.01,,---,0.10,VWS V14.01,2013-03-18 20:18:00,
2013-03-18 16:23:00,33.9,33.1,30.03,NE,40,0.0,2.0,97,0.01,,---,0.10,VWS V14.01,2013-03-18 20:23:00,
2013-03-18 16:28:00,33.9,33.1,30.02,NE,40,0.0,2.0,97,0.01,,---,0.10,VWS V14.01,2013-03-18 20:28:00,
2013-03-18 16:33:00,34.0,33.2,30.02,NE,40,0.0,2.0,97,0.02,,---,0.11,VWS V14.01,2013-03-18 20:33:00,
2013-03-18 16:38:00,34.0,33.2,30.02,NE,40,0.0,2.0,97,0.02,,---,0.11,VWS V14.01,2013-03-18 20:38:00,
2013-03-18 16:43:00,33.9,33.1,30.01,NE,40,1.0,2.0,97,0.02,,---,0.11,VWS V14.01,2013-03-18 20:43:00,
2013-03-18 16:48:00,33.9,33.1,30.01,NE,40,0.0,2.0,97,0.01,,---,0.11,VWS V14.01,2013-03-18 20:48:00,
2013-03-18 16:53:00,34.0,33.2,30.01,NE,40,1.0,2.0,97,0.01,,---,0.11,VWS V14.01,2013-03-18 20:53:00,
2013-03-18 16:58:00,33.9,33.1,30.01,North,5,2.0,5.0,97,0.02,,---,0.12,VWS V14.01,2013-03-18 20:58:00,
2013-03-18 17:03:00,33.8,33.0,30.01,NE,38,2.0,3.0,97,0.02,,---,0.12,VWS V14.01,2013-03-18 21:03:00,
2013-03-18 17:08:00,33.8,33.0,30.02,North,5,1.0,4.0,97,0.02,,---,0.12,VWS V14.01,2013-03-18 21:08:00,
2013-03-18 17:13:00,33.7,32.9,30.02,NNE,18,3.0,3.0,97,0.02,,---,0.12,VWS V14.01,2013-03-18 21:13:00,
2013-03-18 17:18:00,33.7,32.9,30.02,NNE,18,1.0,2.0,97,0.02,,---,0.12,VWS V14.01,2013-03-18 21:18:00,
2013-03-18 17:23:00,33.6,32.8,30.01,NNE,18,0.0,2.0,97,0.03,,---,0.13,VWS V14.01,2013-03-18 21:23:00,
2013-03-18 17:28:00,33.6,32.8,30.00,NNE,18,3.0,3.0,97,0.04,,---,0.14,VWS V14.01,2013-03-18 21:28:00,
2013-03-18 17:33:00,33.6,32.8,30.01,NNE,13,1.0,3.0,97,0.03,,---,0.14,VWS V14.01,2013-03-18 21:33:00,
2013-03-18 17:38:00,33.7,32.9,30.00,NNE,13,0.0,3.0,97,0.03,,---,0.14,VWS V14.01,2013-03-18 21:38:00,
2013-03-18 17:43:00,33.6,32.8,30.01,NNE,13,0.0,2.0,97,0.04,,---,0.15,VWS V14.01,2013-03-18 21:43:00,
2013-03-18 17:48:00,33.6,32.8,30.01,NNE,13,1.0,1.0,97,0.04,,---,0.15,VWS V14.01,2013-03-18 21:48:00,
2013-03-18 17:53:00,33.6,32.8,30.00,NNW,344,2.0,3.0,97,0.04,,---,0.15,VWS V14.01,2013-03-18 21:53:00,
2013-03-18 17:58:00,33.6,32.8,30.00,North,5,0.0,2.0,97,0.05,,---,0.16,VWS V14.01,2013-03-18 21:58:00,
2013-03-18 18:03:00,33.6,32.8,29.99,North,5,1.0,1.0,97,0.06,,---,0.18,VWS V14.01,2013-03-18 22:03:00,
2013-03-18 18:08:00,33.6,32.8,29.99,North,5,1.0,2.0,97,0.06,,---,0.18,VWS V14.01,2013-03-18 22:08:00,
2013-03-18 18:13:00,33.6,32.8,29.99,North,5,0.0,1.0,97,0.07,,---,0.19,VWS V14.01,2013-03-18 22:13:00,
2013-03-18 18:18:00,33.6,32.8,29.99,North,5,1.0,1.0,97,0.07,,---,0.19,VWS V14.01,2013-03-18 22:18:00,
2013-03-18 18:23:00,33.6,32.8,29.98,NE,41,1.0,2.0,97,0.07,,---,0.19,VWS V14.01,2013-03-18 22:23:00,
2013-03-18 18:28:00,33.7,32.9,29.99,NE,41,0.0,1.0,97,0.07,,---,0.19,VWS V14.01,2013-03-18 22:28:00,
2013-03-18 18:33:00,33.7,32.9,30.00,NE,41,1.0,1.0,97,0.05,,---,0.19,VWS V14.01,2013-03-18 22:33:00,
2013-03-18 18:38:00,33.8,33.0,30.01,North,5,1.0,3.0,97,0.05,,---,0.19,VWS V14.01,2013-03-18 22:38:00,
2013-03-18 18:43:00,33.8,33.0,30.01,North,5,1.0,1.0,97,0.05,,---,0.19,VWS V14.01,2013-03-18 22:43:00,
2013-03-18 18:48:00,33.8,33.0,30.00,NE,49,2.0,2.0,97,0.04,,---,0.19,VWS V14.01,2013-03-18 22:48:00,
2013-03-18 18:53:00,33.8,33.0,29.99,East,93,1.0,3.0,97,0.04,,---,0.19,VWS V14.01,2013-03-18 22:53:00,
2013-03-18 18:58:00,33.7,32.9,29.99,East,93,0.0,1.0,97,0.04,,---,0.19,VWS V14.01,2013-03-18 22:58:00,
2013-03-18 19:03:00,33.7,32.9,29.99,SSE,149,1.0,5.0,97,0.02,,---,0.19,VWS V14.01,2013-03-18 23:03:00,
2013-03-18 19:08:00,33.7,32.9,29.99,SSE,149,2.0,2.0,97,0.02,,---,0.19,VWS V14.01,2013-03-18 23:08:00,
2013-03-18 19:13:00,33.7,32.9,29.98,SSE,149,0.0,2.0,97,0.02,,---,0.19,VWS V14.01,2013-03-18 23:13:00,
2013-03-18 19:18:00,33.7,32.9,29.99,SSE,149,0.0,1.0,97,0.00,,---,0.19,VWS V14.01,2013-03-18 23:18:00,
2013-03-18 19:23:00,33.7,32.9,29.98,SSE,149,0.0,1.0,97,0.00,,---,0.19,VWS V14.01,2013-03-18 23:23:00,
2013-03-18 19:28:00,33.7,32.9,29.98,SSE,149,0.0,0.0,97,0.00,,---,0.19,VWS V14.01,2013-03-18 23:28:00,
2013-03-18 19:33:00,33.7,32.9,29.97,SSE,149,0.0,0.0,97,0.00,,---,0.19,VWS V14.01,2013-03-18 23:33:00,
2013-03-18 19:38:00,33.7,32.9,29.97,SSE,149,0.0,1.0,97,0.00,,---,0.19,VWS V14.01,2013-03-18 23:38:00,
2013-03-18 19:43:00,33.7,32.9,29.97,SSE,150,2.0,3.0,97,0.00,,---,0.19,VWS V14.01,2013-03-18 23:43:00,
2013-03-18 19:48:00,33.7,32.9,29.98,SSE,149,1.0,3.0,97,0.00,,---,0.19,VWS V14.01,2013-03-18 23:48:00,
2013-03-18 19:53:00,33.7,32.9,29.98,SSE,150,0.0,2.0,97,0.01,,---,0.20,VWS V14.01,2013-03-18 23:53:00,
2013-03-18 19:58:00,33.7,32.9,29.97,SSE,150,0.0,2.0,97,0.01,,---,0.20,VWS V14.01,2013-03-18 23:58:00,
2013-03-18 20:03:00,33.7,32.9,29.97,SSE,148,0.0,3.0,97,0.01,,---,0.20,VWS V14.01,2013-03-19 00:03:00,
2013-03-18 20:08:00,33.7,32.9,29.97,SSE,148,2.0,2.0,97,0.01,,---,0.20,VWS V14.01,2013-03-19 00:08:00,
2013-03-18 20:13:00,33.7,32.9,29.96,SSE,148,0.0,3.0,97,0.02,,---,0.21,VWS V14.01,2013-03-19 00:13:00,
2013-03-18 20:18:00,33.7,32.9,29.96,SSE,148,1.0,2.0,97,0.02,,---,0.21,VWS V14.01,2013-03-19 00:18:00,
2013-03-18 20:23:00,33.7,32.9,29.95,SSE,148,0.0,2.0,97,0.02,,---,0.21,VWS V14.01,2013-03-19 00:23:00,
2013-03-18 20:28:00,33.7,32.9,29.95,SSE,148,0.0,1.0,97,0.02,,---,0.21,VWS V14.01,2013-03-19 00:28:00,
2013-03-18 20:33:00,33.6,32.8,29.95,SSE,148,0.0,3.0,97,0.02,,---,0.21,VWS V14.01,2013-03-19 00:33:00,
2013-03-18 20:38:00,33.6,32.8,29.94,SSE,148,0.0,0.0,97,0.02,,---,0.21,VWS V14.01,2013-03-19 00:38:00,
2013-03-18 20:43:00,33.5,32.7,29.93,SSE,148,0.0,0.0,97,0.02,,---,0.21,VWS V14.01,2013-03-19 00:43:00,
2013-03-18 20:48:00,33.5,32.7,29.93,SSE,153,1.0,4.0,97,0.02,,---,0.21,VWS V14.01,2013-03-19 00:48:00,
2013-03-18 20:53:00,33.5,32.7,29.93,SSE,153,0.0,4.0,97,0.02,,---,0.21,VWS V14.01,2013-03-19 00:53:00,
2013-03-18 20:58:00,33.4,32.6,29.92,SE,144,3.0,4.0,97,0.02,,---,0.21,VWS V14.01,2013-03-19 00:58:00,
2013-03-18 21:03:00,33.4,32.6,29.91,SE,144,1.0,4.0,97,0.01,,---,0.21,VWS V14.01,2013-03-19 01:03:00,
2013-03-18 21:08:00,33.4,32.6,29.90,SE,140,7.0,8.0,97,0.01,,---,0.21,VWS V14.01,2013-03-19 01:08:00,
2013-03-18 21:13:00,33.3,32.5,29.88,SE,129,5.0,7.0,97,0.01,,---,0.21,VWS V14.01,2013-03-19 01:13:00,
2013-03-18 21:18:00,33.3,32.5,29.88,SE,137,0.0,6.0,97,0.00,,---,0.21,VWS V14.01,2013-03-19 01:18:00,
2013-03-18 21:23:00,33.3,32.5,29.90,SE,142,1.0,6.0,97,0.00,,---,0.21,VWS V14.01,2013-03-19 01:23:00,
2013-03-18 21:28:00,33.2,32.4,29.93,SE,142,3.0,3.0,97,0.00,,---,0.21,VWS V14.01,2013-03-19 01:28:00,
2013-03-18 21:33:00,33.2,32.4,29.94,SSW,207,0.0,4.0,97,0.00,,---,0.21,VWS V14.01,2013-03-19 01:33:00,
2013-03-18 21:38:00,33.3,32.8,29.92,SSW,207,0.0,1.0,98,0.00,,---,0.21,VWS V14.01,2013-03-19 01:38:00,
2013-03-18 21:43:00,33.2,32.7,29.92,SSW,207,0.0,1.0,98,0.00,,---,0.21,VWS V14.01,2013-03-19 01:43:00,
2013-03-18 21:48:00,33.3,32.8,29.92,SSW,207,0.0,1.0,98,0.00,,---,0.21,VWS V14.01,2013-03-19 01:48:00,
2013-03-18 21:53:00,33.3,32.8,29.91,SSW,207,0.0,0.0,98,0.00,,---,0.21,VWS V14.01,2013-03-19 01:53:00,
2013-03-18 21:58:00,33.2,32.7,29.92,SSW,207,1.0,2.0,98,0.00,,---,0.21,VWS V14.01,2013-03-19 01:58:00,
2013-03-18 22:03:00,33.2,32.7,29.91,SW,223,1.0,2.0,98,0.00,,---,0.21,VWS V14.01,2013-03-19 02:03:00,
2013-03-18 22:08:00,33.1,32.6,29.90,SE,137,2.0,3.0,98,0.00,,---,0.21,VWS V14.01,2013-03-19 02:08:00,
2013-03-18 22:13:00,33.1,32.6,29.91,SE,138,0.0,2.0,98,0.00,,---,0.21,VWS V14.01,2013-03-19 02:13:00,
2013-03-18 22:18:00,33.1,32.6,29.93,SE,141,0.0,3.0,98,0.00,,---,0.21,VWS V14.01,2013-03-19 02:18:00,
2013-03-18 22:23:00,33.1,32.6,29.90,SE,141,0.0,2.0,98,0.00,,---,0.21,VWS V14.01,2013-03-19 02:23:00,
2013-03-18 22:28:00,33.2,32.7,29.90,SE,141,0.0,2.0,98,0.00,,---,0.21,VWS V14.01,2013-03-19 02:28:00,
2013-03-18 22:33:00,33.2,32.7,29.90,SE,141,0.0,0.0,98,0.00,,---,0.21,VWS V14.01,2013-03-19 02:33:00,
2013-03-18 22:38:00,33.1,32.6,29.92,SE,141,3.0,3.0,98,0.00,,---,0.21,VWS V14.01,2013-03-19 02:38:00,
2013-03-18 22:43:00,33.2,32.7,29.93,SE,141,1.0,3.0,98,0.00,,---,0.21,VWS V14.01,2013-03-19 02:43:00,
2013-03-18 22:48:00,33.1,32.6,29.91,SE,141,0.0,1.0,98,0.00,,---,0.21,VWS V14.01,2013-03-19 02:48:00,
2013-03-18 22:53:00,33.1,32.6,29.89,ESE,117,1.0,3.0,98,0.00,,---,0.21,VWS V14.01,2013-03-19 02:53:00,
2013-03-18 22:58:00,33.2,32.7,29.89,ESE,117,0.0,2.0,98,0.00,,---,0.21,VWS V14.01,2013-03-19 02:58:00,
2013-03-18 23:03:00,33.2,32.7,29.88,ESE,117,0.0,0.0,98,0.00,,---,0.21,VWS V14.01,2013-03-19 03:03:00,
2013-03-18 23:08:00,33.1,32.6,29.88,ESE,117,0.0,1.0,98,0.00,,---,0.21,VWS V14.01,2013-03-19 03:08:00,
2013-03-18 23:13:00,33.1,32.3,29.89,ESE,117,0.0,1.0,97,0.00,,---,0.21,VWS V14.01,2013-03-19 03:13:00,
2013-03-18 23:18:00,33.0,32.5,29.89,ESE,117,0.0,1.0,98,0.00,,---,0.21,VWS V14.01,2013-03-19 03:18:00,
2013-03-18 23:23:00,33.0,32.5,29.89,ESE,117,1.0,1.0,98,0.00,,---,0.21,VWS V14.01,2013-03-19 03:23:00,
2013-03-18 23:27:00,33.0,32.5,29.90,ESE,117,0.0,1.0,98,0.00,,---,0.21,VWS V14.01,2013-03-19 03:27:00,
2013-03-18 23:32:00,33.0,32.5,29.89,ESE,117,0.0,0.0,98,0.00,,---,0.21,VWS V14.01,2013-03-19 03:32:00,
2013-03-18 23:38:00,33.0,32.5,29.89,ESE,117,0.0,1.0,98,0.00,,---,0.21,VWS V14.01,2013-03-19 03:38:00,
2013-03-18 23:43:00,33.0,32.5,29.89,ESE,117,0.0,0.0,98,0.00,,---,0.21,VWS V14.01,2013-03-19 03:43:00,
2013-03-18 23:48:00,33.0,32.5,29.89,ESE,117,0.0,1.0,98,0.00,,---,0.21,VWS V14.01,2013-03-19 03:48:00,
2013-03-18 23:53:00,33.1,32.6,29.89,ESE,117,0.0,0.0,98,0.00,,---,0.21,VWS V14.01,2013-03-19 03:53:00,
2013-03-18 23:58:00,33.1,32.6,29.90,ESE,117,0.0,1.0,98,0.00,,---,0.21,VWS V14.01,2013-03-19 03:58:00,